QPF
0.00 0.01 0.02 0.02 0.02 0.02 0.03 0.03 0.03 0.03 0.04 0.04 0.03 0.02 0.02 0.02 0.03 0.04 0.03 0.03 0.03 0.03 0.02 0.02 0.02 0.02 0.03 0.03 0.03 0.03 0.03 0.03 0.02 0.01 0.01 0.02 0.02 0.02 0.02 0.02 0.02 0.02 0.03
0.00 0.01 0.01 0.02 0.02 0.02 0.03 0.03 0.03 0.02 0.02 0.03 0.03 0.03 0.03 0.03 0.03 0.04 0.04 0.03 0.03 0.03 0.04 0.03 0.03 0.02 0.02 0.02 0.02 0.02 0.02 0.02 0.01 0.01 0.01 0.01 0.02 0.02 0.02 0.02 0.02 0.03 0.03
0.00 0.01 0.01 0.01 0.02 0.02 0.02 0.03 0.02 0.02 0.02 0.02 0.02 0.02 0.03 0.03 0.04 0.04 0.04 0.03 0.02 0.02 0.03 0.03 0.02 0.02 0.02 0.02 0.02 0.02 0.01 0.01 0.01 0.00 0.00 0.01 0.02 0.03 0.02 0.01 0.01 0.02 0.02
0.00 0.00 0.01 0.01 0.01 0.02 0.02 0.02 0.02 0.02 0.02 0.02 0.02 0.02 0.02 0.02 0.03 0.02 0.02 0.02 0.01 0.01 0.02 0.02 0.02 0.02 0.01 0.01 0.02 0.02 0.01 0.01 0.01 0.00 0.00 0.01 0.02 0.04 0.03 0.01 0.02 0.02 0.02
0.00 0.00 0.00 0.01 0.01 0.02 0.02 0.02 0.02 0.02 0.02 0.02 0.02 0.02 0.02 0.03 0.02 0.02 0.01 0.02 0.02 0.02 0.02 0.02 0.02 0.02 0.02 0.01 0.01 0.02 0.01 0.01 0.00 0.00 0.01 0.01 0.02 0.06 0.04 0.02 0.03 0.03 0.02
0.01 0.00 0.00 0.01 0.01 0.02 0.02 0.01 0.02 0.02 0.02 0.02 0.02 0.02 0.03 0.03 0.02 0.01 0.01 0.02 0.02 0.02 0.03 0.03 0.02 0.02 0.02 0.01 0.01 0.02 0.01 0.01 0.00 0.00 0.00 0.01 0.02 0.05 0.04 0.03 0.03 0.03 0.02
0.01 0.00 0.00 0.01 0.01 0.01 0.01 0.02 0.02 0.02 0.02 0.02 0.02 0.02 0.02 0.02 0.02 0.02 0.01 0.01 0.01 0.02 0.05 0.04 0.02 0.02 0.02 0.01 0.01 0.01 0.01 0.00 0.00 0.00 0.00 0.01 0.02 0.04 0.04 0.04 0.04 0.04 0.03
0.00 0.00 0.00 0.01 0.01 0.01 0.01 0.01 0.02 0.02 0.02 0.02 0.02 0.02 0.02 0.02 0.03 0.02 0.01 0.01 0.01 0.02 0.04 0.04 0.02 0.02 0.02 0.01 0.01 0.01 0.01 0.01 0.00 0.00 0.00 0.00 0.02 0.04 0.05 0.04 0.06 0.05 0.05
0.01 0.01 0.01 0.01 0.01 0.01 0.01 0.01 0.01 0.01 0.02 0.02 0.02 0.02 0.02 0.02 0.02 0.02 0.01 0.01 0.01 0.01 0.03 0.03 0.02 0.02 0.01 0.01 0.01 0.01 0.02 0.01 0.00 0.00 0.00 0.01 0.03 0.05 0.06 0.05 0.06 0.07 0.05
0.01 0.01 0.01 0.01 0.01 0.01 0.01 0.01 0.01 0.01 0.02 0.02 0.01 0.02 0.02 0.02 0.01 0.02 0.01 0.01 0.01 0.01 0.02 0.02 0.02 0.01 0.01 0.01 0.01 0.02 0.02 0.02 0.01 0.01 0.00 0.02 0.05 0.05 0.07 0.07 0.06 0.06 0.05
0.01 0.01 0.02 0.01 0.01 0.01 0.01 0.01 0.01 0.01 0.01 0.01 0.01 0.01 0.01 0.01 0.01 0.01 0.01 0.01 0.01 0.01 0.01 0.01 0.01 0.01 0.01 0.01 0.02 0.03 0.03 0.02 0.02 0.03 0.02 0.04 0.05 0.05 0.06 0.06 0.06 0.07 0.05
0.01 0.01 0.02 0.03 0.02 0.02 0.01 0.01 0.01 0.01 0.01 0.01 0.01 0.01 0.01 0.01 0.01 0.01 0.01 0.01 0.01 0.01 0.01 0.01 0.01 0.01 0.00 0.00 0.01 0.02 0.03 0.05 0.06 0.05 0.04 0.06 0.05 0.05 0.05 0.05 0.05 0.06 0.07
0.00 0.01 0.02 0.02 0.03 0.02 0.02 0.01 0.01 0.01 0.01 0.01 0.01 0.01 0.01 0.01 0.01 0.01 0.01 0.01 0.01 0.01 0.01 0.01 0.01 0.01 0.00 0.01 0.01 0.02 0.03 0.06 0.05 0.05 0.05 0.06 0.05 0.04 0.04 0.04 0.04 0.04 0.06
0.00 0.00 0.01 0.02 0.03 0.02 0.02 0.02 0.02 0.01 0.01 0.02 0.02 0.01 0.01 0.01 0.01 0.01 0.01 0.01 0.01 0.01 0.01 0.00 0.00 0.00 0.00 0.00 0.01 0.01 0.03 0.04 0.04 0.04 0.04 0.04 0.04 0.03 0.03 0.04 0.05 0.05 0.05
0.00 0.00 0.01 0.01 0.02 0.03 0.03 0.02 0.03 0.03 0.02 0.01 0.02 0.02 0.01 0.01 0.01 0.01 0.01 0.01 0.02 0.02 0.01 0.01 0.00 0.00 0.00 0.00 0.01 0.01 0.02 0.03 0.03 0.04 0.04 0.03 0.01 0.01 0.02 0.03 0.05 0.06 0.05
0.00 0.00 0.01 0.01 0.02 0.03 0.03 0.02 0.02 0.03 0.04 0.03 0.03 0.02 0.02 0.01 0.01 0.00 0.01 0.01 0.02 0.03 0.03 0.02 0.01 0.01 0.01 0.01 0.01 0.02 0.01 0.02 0.02 0.02 0.04 0.04 0.02 0.01 0.01 0.02 0.03 0.05 0.07
0.00 0.00 0.00 0.01 0.02 0.03 0.03 0.03 0.02 0.02 0.03 0.04 0.05 0.04 0.02 0.01 0.01 0.00 0.00 0.01 0.01 0.02 0.04 0.03 0.03 0.02 0.02 0.02 0.02 0.03 0.02 0.02 0.02 0.02 0.02 0.03 0.03 0.01 0.01 0.01 0.02 0.04 0.06
0.00 0.00 0.01 0.01 0.01 0.03 0.03 0.03 0.03 0.03 0.02 0.03 0.05 0.06 0.04 0.02 0.01 0.01 0.00 0.01 0.01 0.01 0.02 0.04 0.04 0.03 0.03 0.02 0.02 0.02 0.02 0.02 0.02 0.02 0.02 0.02 0.02 0.02 0.01 0.01 0.01 0.03 0.05
0.00 0.01 0.01 0.01 0.01 0.02 0.03 0.03 0.04 0.04 0.03 0.03 0.04 0.05 0.05 0.04 0.03 0.02 0.02 0.02 0.01 0.01 0.01 0.02 0.03 0.04 0.04 0.03 0.01 0.01 0.02 0.02 0.02 0.03 0.03 0.02 0.02 0.02 0.01 0.01 0.01 0.01 0.04
0.01 0.01 0.01 0.01 0.01 0.01 0.03 0.03 0.03 0.04 0.04 0.04 0.04 0.05 0.05 0.05 0.05 0.04 0.03 0.03 0.03 0.02 0.01 0.01 0.01 0.02 0.03 0.04 0.03 0.02 0.02 0.02 0.02 0.02 0.03 0.04 0.03 0.02 0.01 0.01 0.01 0.01 0.02
0.01 0.01 0.01 0.00 0.00 0.01 0.01 0.02 0.03 0.03 0.03 0.03 0.03 0.05 0.05 0.05 0.05 0.05 0.03 0.02 0.02 0.03 0.02 0.02 0.01 0.01 0.02 0.02 0.03 0.04 0.03 0.03 0.02 0.02 0.03 0.04 0.04 0.03 0.03 0.02 0.02 0.02 0.02
0.00 0.00 0.00 0.00 0.00 0.00 0.01 0.01 0.02 0.03 0.03 0.03 0.03 0.04 0.06 0.06 0.06 0.06 0.05 0.04 0.02 0.02 0.02 0.02 0.02 0.01 0.01 0.01 0.02 0.03 0.04 0.04 0.03 0.02 0.02 0.03 0.03 0.04 0.04 0.04 0.04 0.03 0.03
0.00 0.00 0.00 0.00 0.00 0.01 0.01 0.01 0.02 0.02 0.04 0.04 0.02 0.02 0.03 0.05 0.06 0.07 0.07 0.06 0.04 0.02 0.01 0.02 0.02 0.02 0.02 0.02 0.01 0.02 0.03 0.03 0.03 0.03 0.03 0.03 0.03 0.04 0.05 0.05 0.05 0.04 0.04
0.00 0.00 0.00 0.00 0.00 0.01 0.01 0.01 0.01 0.01 0.02 0.05 0.04 0.02 0.01 0.03 0.05 0.05 0.07 0.07 0.05 0.03 0.02 0.01 0.02 0.02 0.02 0.02 0.02 0.02 0.02 0.02 0.02 0.03 0.03 0.03 0.04 0.04 0.04 0.04 0.05 0.04 0.04
0.00 0.00 0.00 0.00 0.00 0.01 0.01 0.01 0.01 0.01 0.01 0.03 0.06 0.05 0.02 0.02 0.03 0.04 0.05 0.07 0.06 0.04 0.02 0.01 0.01 0.02 0.02 0.02 0.02 0.02 0.03 0.03 0.02 0.02 0.02 0.03 0.04 0.04 0.03 0.03 0.03 0.04 0.04
0.00 0.00 0.00 0.00 0.00 0.01 0.00 0.00 0.00 0.01 0.01 0.01 0.05 0.07 0.04 0.02 0.02 0.02 0.03 0.04 0.06 0.07 0.04 0.02 0.01 0.01 0.02 0.02 0.02 0.02 0.03 0.03 0.03 0.02 0.02 0.02 0.03 0.04 0.04 0.03 0.03 0.03 0.03
MSLP
1016.53 1016.35 1016.27 1016.32 1016.54 1016.88 1017.28 1017.67 1017.98 1018.17 1018.26 1018.27 1018.26 1018.28 1018.37 1018.52 1018.74 1018.96 1019.16 1019.29 1019.34 1019.31 1019.24 1019.16 1019.11 1019.12 1019.18 1019.28 1019.39 1019.48 1019.53 1019.53 1019.47 1019.35 1019.20 1019.04 1018.87 1018.70 1018.53 1018.36 1018.20 1018.04 1017.90
1016.09 1016.00 1016.02 1016.18 1016.49 1016.91 1017.37 1017.79 1018.12 1018.32 1018.42 1018.45 1018.48 1018.55 1018.69 1018.91 1019.19 1019.47 1019.70 1019.86 1019.92 1019.90 1019.83 1019.75 1019.70 1019.69 1019.73 1019.81 1019.89 1019.96 1019.98 1019.96 1019.88 1019.78 1019.65 1019.51 1019.38 1019.24 1019.10 1018.95 1018.79 1018.64 1018.49
1015.65 1015.64 1015.74 1016.00 1016.40 1016.90 1017.42 1017.88 1018.24 1018.47 1018.60 1018.66 1018.73 1018.85 1019.05 1019.32 1019.63 1019.93 1020.17 1020.33 1020.39 1020.37 1020.30 1020.22 1020.17 1020.16 1020.20 1020.27 1020.33 1020.38 1020.39 1020.35 1020.28 1020.19 1020.09 1019.99 1019.89 1019.78 1019.67 1019.55 1019.41 1019.26 1019.12
1015.31 1015.36 1015.53 1015.87 1016.34 1016.91 1017.48 1017.98 1018.37 1018.63 1018.79 1018.89 1019.01 1019.17 1019.41 1019.70 1020.02 1020.32 1020.54 1020.68 1020.72 1020.68 1020.62 1020.55 1020.52 1020.53 1020.59 1020.66 1020.73 1020.77 1020.78 1020.75 1020.68 1020.61 1020.53 1020.46 1020.39 1020.32 1020.24 1020.13 1020.01 1019.88 1019.75
1015.16 1015.24 1015.46 1015.85 1016.38 1016.98 1017.58 1018.10 1018.51 1018.79 1018.98 1019.13 1019.28 1019.48 1019.75 1020.05 1020.36 1020.63 1020.82 1020.92 1020.93 1020.89 1020.82 1020.78 1020.78 1020.83 1020.92 1021.03 1021.12 1021.18 1021.19 1021.17 1021.11 1021.05 1020.99 1020.94 1020.89 1020.84 1020.78 1020.70 1020.60 1020.48 1020.37
1015.21 1015.31 1015.57 1015.99 1016.54 1017.15 1017.74 1018.26 1018.67 1018.96 1019.17 1019.35 1019.55 1019.79 1020.08 1020.38 1020.68 1020.91 1021.06 1021.12 1021.10 1021.04 1020.99 1020.97 1021.02 1021.12 1021.26 1021.41 1021.53 1021.61 1021.64 1021.62 1021.57 1021.52 1021.46 1021.42 1021.38 1021.35 1021.30 1021.23 1021.15 1021.06 1020.97
1015.42 1015.54 1015.82 1016.25 1016.80 1017.39 1017.95 1018.44 1018.83 1019.12 1019.35 1019.57 1019.81 1020.10 1020.41 1020.73 1021.02 1021.23 1021.34 1021.36 1021.31 1021.25 1021.21 1021.22 1021.31 1021.46 1021.65 1021.84 1022.00 1022.10 1022.13 1022.12 1022.07 1022.00 1021.94 1021.90 1021.86 1021.83 1021.78 1021.73 1021.67 1021.61 1021.56
1015.70 1015.85 1016.14 1016.58 1017.10 1017.66 1018.18 1018.62 1018.98 1019.27 1019.52 1019.78 1020.08 1020.42 1020.78 1021.13 1021.42 1021.62 1021.71 1021.70 1021.64 1021.57 1021.54 1021.58 1021.70 1021.89 1022.12 1022.34 1022.51 1022.62 1022.65 1022.63 1022.56 1022.49 1022.41 1022.36 1022.32 1022.28 1022.25 1022.22 1022.18 1022.15 1022.13
1015.95 1016.14 1016.46 1016.90 1017.40 1017.92 1018.39 1018.79 1019.12 1019.40 1019.68 1019.99 1020.36 1020.77 1021.19 1021.59 1021.90 1022.11 1022.19 1022.18 1022.11 1022.04 1022.01 1022.07 1022.21 1022.42 1022.66 1022.89 1023.06 1023.16 1023.17 1023.13 1023.05 1022.95 1022.86 1022.80 1022.76 1022.73 1022.71 1022.69 1022.68 1022.68 1022.69
1016.08 1016.32 1016.68 1017.14 1017.64 1018.12 1018.55 1018.91 1019.22 1019.51 1019.83 1020.20 1020.64 1021.13 1021.63 1022.08 1022.44 1022.67 1022.77 1022.76 1022.69 1022.62 1022.60 1022.66 1022.81 1023.01 1023.24 1023.46 1023.61 1023.68 1023.67 1023.60 1023.50 1023.39 1023.29 1023.22 1023.18 1023.17 1023.17 1023.17 1023.19 1023.21 1023.26
1016.04 1016.36 1016.78 1017.27 1017.78 1018.25 1018.65 1019.00 1019.31 1019.61 1019.97 1020.40 1020.92 1021.48 1022.05 1022.57 1022.97 1023.24 1023.36 1023.37 1023.31 1023.25 1023.24 1023.29 1023.43 1023.62 1023.83 1024.01 1024.13 1024.18 1024.14 1024.05 1023.93 1023.80 1023.71 1023.64 1023.62 1023.62 1023.64 1023.67 1023.71 1023.76 1023.82
1015.85 1016.25 1016.75 1017.29 1017.82 1018.30 1018.71 1019.05 1019.37 1019.70 1020.10 1020.59 1021.16 1021.78 1022.41 1022.97 1023.42 1023.72 1023.88 1023.91 1023.88 1023.84 1023.83 1023.89 1024.02 1024.19 1024.38 1024.53 1024.62 1024.64 1024.58 1024.47 1024.34 1024.22 1024.13 1024.08 1024.07 1024.09 1024.13 1024.19 1024.25 1024.31 1024.37
1015.54 1016.03 1016.60 1017.20 1017.78 1018.28 1018.71 1019.08 1019.42 1019.78 1020.21 1020.73 1021.34 1021.99 1022.65 1023.24 1023.72 1024.05 1024.24 1024.31 1024.32 1024.31 1024.33 1024.40 1024.53 1024.70 1024.87 1025.00 1025.08 1025.08 1025.01 1024.91 1024.78 1024.67 1024.59 1024.56 1024.56 1024.60 1024.66 1024.73 1024.79 1024.85 1024.91
1015.15 1015.73 1016.38 1017.04 1017.66 1018.21 1018.68 1019.08 1019.45 1019.84 1020.29 1020.82 1021.43 1022.09 1022.74 1023.34 1023.82 1024.18 1024.40 1024.52 1024.57 1024.62 1024.68 1024.79 1024.95 1025.13 1025.30 1025.44 1025.52 1025.52 1025.47 1025.37 1025.26 1025.17 1025.11 1025.09 1025.11 1025.15 1025.22 1025.28 1025.34 1025.39 1025.43
1014.71 1015.36 1016.08 1016.80 1017.48 1018.08 1018.60 1019.04 1019.45 1019.87 1020.33 1020.86 1021.44 1022.07 1022.69 1023.26 1023.74 1024.10 1024.36 1024.53 1024.66 1024.77 1024.90 1025.07 1025.27 1025.48 1025.69 1025.85 1025.95 1025.98 1025.96 1025.89 1025.80 1025.73 1025.68 1025.67 1025.70 1025.74 1025.80 1025.85 1025.89 1025.91 1025.92
1014.23 1014.93 1015.70 1016.47 1017.21 1017.87 1018.45 1018.95 1019.40 1019.85 1020.31 1020.82 1021.37 1021.94 1022.50 1023.03 1023.49 1023.87 1024.17 1024.40 1024.60 1024.80 1025.01 1025.25 1025.52 1025.79 1026.04 1026.24 1026.39 1026.46 1026.47 1026.44 1026.39 1026.34 1026.30 1026.30 1026.31 1026.34 1026.38 1026.40 1026.42 1026.41 1026.39
1013.66 1014.39 1015.19 1016.02 1016.81 1017.54 1018.19 1018.76 1019.28 1019.76 1020.23 1020.71 1021.21 1021.72 1022.23 1022.71 1023.16 1023.54 1023.88 1024.18 1024.47 1024.75 1025.06 1025.38 1025.72 1026.05 1026.35 1026.61 1026.80 1026.92 1026.98 1026.99 1026.97 1026.94 1026.92 1026.91 1026.91 1026.92 1026.93 1026.93 1026.92 1026.89 1026.83
1012.96 1013.71 1014.54 1015.40 1016.25 1017.05 1017.79 1018.45 1019.04 1019.57 1020.06 1020.53 1021.00 1021.46 1021.91 1022.36 1022.78 1023.18 1023.57 1023.94 1024.31 1024.68 1025.07 1025.47 1025.86 1026.25 1026.60 1026.91 1027.14 1027.32 1027.42 1027.48 1027.49 1027.48 1027.47 1027.46 1027.45 1027.44 1027.43 1027.41 1027.38 1027.32 1027.25
1012.09 1012.85 1013.69 1014.59 1015.51 1016.40 1017.24 1018.01 1018.69 1019.28 1019.81 1020.28 1020.72 1021.15 1021.57 1021.98 1022.40 1022.83 1023.26 1023.69 1024.14 1024.58 1025.04 1025.50 1025.94 1026.37 1026.75 1027.09 1027.37 1027.58 1027.74 1027.83 1027.88 1027.90 1027.90 1027.89 1027.88 1027.86 1027.84 1027.81 1027.77 1027.71 1027.63
1011.05 1011.81 1012.68 1013.62 1014.61 1015.60 1016.55 1017.42 1018.21 1018.89 1019.46 1019.96 1020.40 1020.80 1021.20 1021.61 1022.04 1022.48 1022.96 1023.45 1023.95 1024.45 1024.95 1025.44 1025.91 1026.36 1026.76 1027.12 1027.43 1027.68 1027.87 1028.01 1028.10 1028.15 1028.17 1028.17 1028.17 1028.16 1028.14 1028.12 1028.09 1028.03 1027.96
1009.89 1010.66 1011.54 1012.53 1013.59 1014.68 1015.74 1016.73 1017.62 1018.39 1019.03 1019.56 1020.01 1020.42 1020.81 1021.22 1021.66 1022.13 1022.64 1023.17 1023.71 1024.25 1024.77 1025.27 1025.75 1026.19 1026.60 1026.97 1027.30 1027.58 1027.81 1027.99 1028.12 1028.21 1028.26 1028.29 1028.31 1028.32 1028.32 1028.32 1028.31 1028.28 1028.22
1008.69 1009.46 1010.37 1011.41 1012.54 1013.71 1014.88 1015.97 1016.96 1017.81 1018.52 1019.09 1019.56 1019.97 1020.37 1020.79 1021.24 1021.74 1022.28 1022.84 1023.40 1023.95 1024.48 1024.98 1025.44 1025.87 1026.27 1026.65 1027.00 1027.31 1027.58 1027.80 1027.98 1028.11 1028.21 1028.27 1028.32 1028.36 1028.40 1028.43 1028.45 1028.45 1028.41
1007.55 1008.34 1009.27 1010.34 1011.53 1012.77 1014.02 1015.21 1016.27 1017.19 1017.94 1018.55 1019.04 1019.47 1019.88 1020.30 1020.77 1021.29 1021.84 1022.42 1023.00 1023.55 1024.08 1024.56 1025.00 1025.42 1025.82 1026.20 1026.57 1026.91 1027.22 1027.50 1027.73 1027.91 1028.04 1028.15 1028.23 1028.31 1028.38 1028.45 1028.50 1028.53 1028.52
1006.59 1007.38 1008.33 1009.42 1010.64 1011.94 1013.23 1014.47 1015.59 1016.55 1017.34 1017.96 1018.47 1018.91 1019.33 1019.77 1020.25 1020.78 1021.35 1021.94 1022.52 1023.08 1023.59 1024.06 1024.49 1024.90 1025.30 1025.70 1026.09 1026.47 1026.83 1027.15 1027.43 1027.65 1027.83 1027.98 1028.09 1028.20 1028.30 1028.39 1028.48 1028.54 1028.55
1005.87 1006.67 1007.61 1008.71 1009.93 1011.23 1012.54 1013.80 1014.93 1015.91 1016.71 1017.35 1017.87 1018.32 1018.75 1019.20 1019.69 1020.24 1020.82 1021.42 1022.01 1022.57 1023.08 1023.55 1023.98 1024.39 1024.80 1025.22 1025.64 1026.06 1026.46 1026.83 1027.15 1027.42 1027.63 1027.80 1027.94 1028.07 1028.18 1028.30 1028.40 1028.48 1028.51
1005.45 1006.22 1007.14 1008.21 1009.40 1010.67 1011.95 1013.19 1014.31 1015.28 1016.09 1016.73 1017.26 1017.72 1018.16 1018.63 1019.14 1019.70 1020.31 1020.92 1021.52 1022.08 1022.60 1023.07 1023.51 1023.94 1024.37 1024.81 1025.26 1025.72 1026.16 1026.57 1026.93 1027.23 1027.47 1027.66 1027.81 1027.94 1028.06 1028.18 1028.29 1028.37 1028.41
Thickness
5669 5672 5674 5676 5678 5680 5681 5683 5684 5685 5686 5687 5688 5690 5691 5691 5692 5693 5694 5695 5696 5696 5698 5699 5699 5700 5700 5701 5701 5702 5702 5702 5703 5703 5704 5705 5705 5706 5706 5706 5706 5706 5707
5668 5670 5672 5673 5675 5676 5678 5679 5680 5681 5682 5683 5684 5685 5686 5687 5688 5689 5690 5691 5691 5692 5693 5694 5695 5696 5696 5697 5697 5698 5698 5698 5698 5699 5700 5700 5701 5702 5702 5702 5703 5703 5703
5665 5667 5668 5670 5671 5673 5674 5675 5676 5677 5678 5679 5680 5681 5682 5683 5684 5685 5686 5686 5687 5688 5689 5690 5691 5691 5692 5693 5693 5694 5694 5694 5694 5695 5696 5696 5697 5698 5698 5699 5699 5699 5700
5662 5663 5664 5666 5667 5668 5669 5670 5671 5672 5674 5675 5676 5676 5677 5678 5679 5680 5681 5682 5683 5683 5684 5685 5686 5687 5687 5688 5689 5689 5690 5690 5690 5691 5692 5692 5693 5694 5694 5695 5695 5695 5696
5657 5658 5659 5661 5662 5663 5665 5666 5667 5668 5669 5670 5671 5672 5672 5673 5674 5675 5676 5677 5678 5679 5679 5680 5681 5682 5683 5683 5684 5685 5685 5685 5686 5687 5687 5688 5689 5690 5690 5691 5691 5691 5692
5651 5652 5654 5655 5656 5658 5659 5660 5661 5662 5664 5665 5666 5666 5667 5668 5669 5670 5670 5671 5673 5674 5674 5675 5676 5677 5677 5678 5679 5680 5680 5680 5681 5682 5683 5684 5685 5686 5686 5686 5687 5687 5688
5646 5646 5647 5649 5650 5652 5653 5654 5656 5657 5658 5659 5660 5661 5661 5662 5663 5664 5665 5666 5667 5668 5669 5669 5670 5671 5672 5673 5673 5674 5675 5675 5676 5677 5678 5679 5680 5681 5681 5682 5682 5682 5683
5640 5640 5641 5643 5644 5645 5647 5648 5649 5651 5652 5653 5654 5654 5655 5656 5657 5658 5659 5660 5661 5662 5663 5664 5665 5666 5666 5667 5667 5668 5668 5669 5670 5671 5672 5674 5675 5676 5676 5677 5677 5677 5678
5633 5633 5634 5635 5637 5638 5639 5641 5642 5644 5645 5645 5646 5647 5648 5649 5650 5651 5652 5654 5655 5656 5657 5657 5658 5659 5660 5660 5661 5661 5662 5663 5664 5665 5666 5667 5669 5670 5671 5671 5671 5672 5672
5626 5626 5627 5628 5629 5631 5632 5634 5635 5636 5637 5638 5639 5640 5641 5641 5643 5644 5646 5647 5648 5649 5650 5651 5652 5653 5653 5654 5654 5655 5655 5656 5657 5658 5660 5661 5662 5664 5664 5665 5665 5666 5666
5618 5618 5620 5621 5622 5623 5625 5626 5627 5628 5629 5630 5631 5633 5633 5634 5635 5636 5638 5639 5640 5641 5642 5643 5644 5645 5646 5646 5647 5647 5648 5649 5650 5651 5653 5654 5655 5657 5658 5658 5659 5660 5660
5610 5611 5612 5613 5614 5615 5617 5618 5619 5620 5621 5622 5624 5625 5626 5626 5627 5628 5630 5631 5632 5633 5634 5635 5636 5637 5637 5638 5639 5640 5640 5641 5642 5644 5645 5647 5648 5650 5651 5651 5652 5653 5653
5603 5604 5604 5605 5606 5608 5609 5610 5611 5612 5613 5614 5615 5617 5617 5618 5619 5620 5621 5623 5624 5625 5626 5627 5628 5628 5629 5630 5631 5631 5632 5633 5634 5635 5637 5639 5640 5642 5643 5644 5645 5646 5647
5596 5596 5597 5598 5598 5599 5601 5601 5602 5603 5604 5605 5606 5608 5609 5609 5610 5611 5612 5614 5615 5616 5617 5618 5619 5619 5620 5621 5622 5623 5623 5624 5625 5627 5628 5630 5631 5633 5635 5636 5638 5639 5639
5588 5589 5589 5590 5590 5591 5591 5592 5593 5594 5595 5596 5597 5599 5599 5600 5600 5601 5603 5604 5605 5607 5608 5609 5610 5611 5611 5612 5613 5614 5615 5615 5617 5618 5620 5621 5622 5624 5626 5628 5629 5630 5632
5581 5580 5581 5581 5581 5582 5582 5583 5584 5584 5585 5587 5588 5589 5590 5591 5591 5592 5593 5595 5596 5598 5599 5600 5600 5601 5602 5603 5604 5605 5606 5606 5608 5609 5611 5612 5613 5615 5617 5619 5621 5622 5624
5573 5572 5572 5572 5572 5573 5573 5573 5574 5575 5575 5576 5577 5578 5579 5581 5582 5583 5584 5585 5586 5588 5589 5590 5591 5592 5593 5594 5595 5596 5597 5598 5599 5600 5602 5603 5604 5606 5608 5610 5612 5613 5615
5564 5563 5563 5564 5563 5563 5563 5564 5564 5565 5565 5566 5567 5568 5569 5570 5572 5573 5574 5575 5576 5577 5579 5580 5580 5581 5581 5583 5584 5585 5587 5588 5589 5591 5592 5594 5595 5597 5598 5600 5602 5603 5605
5557 5555 5554 5554 5553 5553 5553 5553 5554 5555 5555 5555 5556 5557 5559 5560 5561 5563 5564 5564 5565 5567 5568 5569 5569 5570 5570 5571 5572 5575 5576 5577 5579 5580 5582 5584 5585 5587 5588 5590 5591 5593 5595
5547 5546 5545 5544 5543 5543 5542 5542 5542 5543 5544 5545 5545 5546 5548 5549 5550 5552 5553 5554 5555 5556 5556 5557 5558 5558 5559 5559 5561 5563 5564 5566 5568 5569 5571 5573 5574 5576 5578 5580 5581 5582 5584
5536 5535 5535 5534 5533 5532 5531 5531 5531 5532 5533 5533 5534 5536 5537 5538 5539 5540 5542 5543 5543 5544 5545 5545 5546 5546 5547 5547 5548 5549 5551 5554 5556 5558 5560 5561 5563 5565 5567 5568 5570 5572 5573
5526 5525 5525 5524 5523 5523 5522 5522 5521 5521 5521 5523 5523 5524 5526 5527 5528 5529 5530 5531 5532 5532 5533 5533 5534 5533 5534 5535 5535 5535 5537 5540 5543 5545 5547 5549 5551 5552 5554 5555 5558 5560 5561
5516 5516 5516 5514 5513 5512 5512 5510 5509 5509 5510 5510 5512 5513 5514 5515 5517 5518 5519 5520 5520 5521 5521 5521 5522 5523 5521 5522 5523 5523 5522 5525 5526 5531 5534 5535 5537 5539 5540 5542 5544 5547 5548
5507 5506 5505 5503 5502 5501 5501 5500 5500 5500 5500 5501 5501 5502 5502 5504 5505 5506 5507 5507 5508 5509 5509 5510 5511 5511 5511 5510 5510 5510 5511 5511 5511 5515 5519 5521 5523 5525 5526 5528 5530 5533 5535
5495 5493 5492 5491 5490 5490 5489 5489 5488 5489 5489 5490 5489 5490 5491 5492 5493 5494 5495 5495 5496 5497 5498 5498 5498 5499 5499 5499 5498 5498 5497 5497 5499 5501 5505 5507 5509 5511 5512 5514 5516 5519 5521
5481 5480 5478 5478 5477 5477 5477 5477 5477 5477 5476 5477 5477 5477 5479 5480 5481 5482 5483 5483 5484 5485 5486 5487 5487 5487 5487 5487 5486 5486 5486 5486 5486 5487 5489 5492 5494 5496 5498 5500 5502 5505 5507